Terminal Aerodrome Forecast
Issued by NWS

Home | Current Version | Previous Version | Text Only | Print | Product List | Glossary On
Versions: 1 2 3 4 5 6 7 8 9 10 11 12 13 14 15 16 17 18
000
FTUS43 KFGF 010500
TAFTVF
TAF
KTVF 010520Z 0106/0206 13015G24KT P6SM BKN035
     FM010900 14013G20KT P6SM BKN025
     FM011500 19015G23KT P6SM BKN025
     FM011900 23018G25KT P6SM BKN040
      AMD LTD TO CLD VIS AND WIND=

USA.gov is the U.S. government's official web portal to all federal, state and local government web resources and services.